Tracking 26933 objects as of 5-Feb-2023
HD Live streaming from Space Station
objects crossing your sky now

COSMOS 2554

Track COSMOS 2554 now!
10-day predictions


NORAD ID: 52202
Int'l Code: 2022-036A
Perigee: 908.2 km
Apogee: 916.7 km
Inclination: 67.2 °
Period: 103.1 minutes
Semi major axis: 7283 km
RCS: Unknown
Launch date: April 7, 2022
Source: Commonwealth of Independent States (former USSR) (CIS)
Launch site: PLESETSK MISSILE AND SPACE COMPLEX (PKMTR)
Your satellite tracking list
Your tracking list is empty




NASA's NSSDC Master Catalog

Two Line Element Set (TLE):
1 52202U 22036A   23036.30921549 -.00000023  00000-0  37668-4 0  9991
2 52202  67.1515 333.0694 0005815 273.7758  86.2671 13.96677059 42485
Source of the keplerian elements: AFSPC